TimePST,TemperatureF,Dew PointF,Humidity,Sea Level PressureIn,VisibilityMPH,Wind Direction,Wind SpeedMPH,Gust SpeedMPH,PrecipitationIn,Events,Conditions,WindDirDegrees,DateUTC
12:53 AM,43.0,41.0,93,30.27,10.0,East,3.5,-,N/A,,Clear,100,2013-03-02 08:53:00
1:53 AM,44.1,41.0,89,30.26,10.0,ESE,3.5,-,N/A,,Clear,120,2013-03-02 09:53:00
3:53 AM,48.9,43.0,80,30.24,10.0,South,8.1,-,N/A,,Clear,170,2013-03-02 11:53:00
4:53 AM,46.0,42.1,86,30.22,10.0,Calm,Calm,-,N/A,,Clear,0,2013-03-02 12:53:00
5:53 AM,48.0,43.0,83,30.21,10.0,SSW,5.8,-,N/A,,Clear,200,2013-03-02 13:53:00
6:53 AM,46.0,42.1,86,30.20,10.0,SE,5.8,-,N/A,,Clear,140,2013-03-02 14:53:00
7:53 AM,50.0,44.1,80,30.19,10.0,South,5.8,-,N/A,,Clear,190,2013-03-02 15:53:00
8:53 AM,52.0,44.1,74,30.17,10.0,SSE,6.9,-,N/A,,Clear,150,2013-03-02 16:53:00
9:53 AM,53.1,44.1,71,30.16,10.0,SSE,4.6,-,N/A,,Clear,150,2013-03-02 17:53:00
10:53 AM,55.0,44.1,67,30.14,10.0,Variable,4.6,-,N/A,,Clear,0,2013-03-02 18:53:00
11:53 AM,55.9,44.1,64,30.13,10.0,SSW,4.6,-,N/A,,Mostly Cloudy,210,2013-03-02 19:53:00
12:53 PM,57.0,44.1,62,30.09,10.0,South,9.2,-,N/A,,Mostly Cloudy,170,2013-03-02 20:53:00
1:53 PM,57.9,44.1,60,30.06,10.0,South,5.8,-,N/A,,Mostly Cloudy,190,2013-03-02 21:53:00
2:53 PM,57.0,45.0,64,30.04,10.0,Calm,Calm,-,N/A,,Overcast,0,2013-03-02 22:53:00
3:32 PM,57.2,44.6,63,30.03,10.0,SW,11.5,-,N/A,,Overcast,220,2013-03-02 23:32:00
3:53 PM,57.9,44.1,60,30.03,10.0,Variable,3.5,-,N/A,,Mostly Cloudy,0,2013-03-02 23:53:00
4:53 PM,57.9,44.1,60,30.02,10.0,SSW,9.2,19.6,N/A,,Overcast,210,2013-03-03 00:53:00
5:53 PM,55.9,44.1,64,30.02,10.0,SSW,12.7,-,N/A,,Overcast,210,2013-03-03 01:53:00
6:53 PM,55.9,42.1,60,30.02,10.0,SSW,8.1,-,N/A,,Overcast,210,2013-03-03 02:53:00
7:53 PM,55.9,37.9,51,30.00,10.0,WSW,11.5,19.6,0.00,,Overcast,240,2013-03-03 03:53:00
8:53 PM,53.1,39.0,59,30.01,10.0,SW,10.4,-,N/A,,Clear,230,2013-03-03 04:53:00
9:53 PM,52.0,39.0,61,30.03,10.0,SW,11.5,-,N/A,,Clear,230,2013-03-03 05:53:00
10:53 PM,51.1,39.0,63,30.04,10.0,West,11.5,-,N/A,,Overcast,270,2013-03-03 06:53:00
11:53 PM,48.0,32.0,54,30.05,10.0,WNW,9.2,-,N/A,,Overcast,290,2013-03-03 07:53:00